Date String (YYYY-MM-DD hh:mm:ss) UTC,Instrument flags,Ambient pressure (hPa),Sample flow (lpm),Bypass flow (lpm),Sample temperature (°C),Ambient temperature (°C),ASC tube jacket temperature (°C),LED temperature (°C),Box temperature (°C),Sample RH (%),Span deviation,Mass concentration (μg/m³),Mass concentration (μg/m³),Mass concentration (μg/m³)
DateTimeUTC,F1_M11,P_M11,Q1_M11,Q2_M11,T1_M11,T2_M11,T3_M11,T4_M11,T5_M11,U1_M11,ZSPAN_M11,X0_M11,X2_M11,X1_M11
2022-01-25 06:00:00,,0823.6,5.00,0.00,22.5,21.9,00.0,31.5,24.3,11.0,0000.0,0011.06,0003.23,0002.27
2022-01-25 06:01:00,,0823.7,4.99,0.00,22.5,21.9,00.0,31.5,24.3,11.0,0000.0,0011.01,0003.19,0002.26
2022-01-25 06:02:00,,0823.7,5.00,0.00,22.5,21.9,00.0,31.5,24.3,11.1,0000.0,0011.13,0003.20,0002.27
2022-01-25 06:03:00,,0823.7,5.02,0.00,22.5,21.9,00.0,31.5,24.3,11.1,0000.0,0011.19,0003.18,0002.26
2022-01-25 06:04:00,,0823.7,4.99,0.00,22.5,21.8,00.0,31.5,24.3,11.2,0000.0,0011.03,0003.18,0002.27
2022-01-25 06:05:00,,0823.7,4.99,0.00,22.5,21.8,00.0,31.5,24.3,11.2,0000.0,0010.79,0003.20,0002.29
2022-01-25 06:06:00,,0823.7,5.00,0.00,22.5,21.8,00.0,31.5,24.3,11.2,0000.0,0010.03,0003.19,0002.29
2022-01-25 06:07:00,,0823.7,5.00,0.00,22.5,21.8,00.0,31.5,24.3,11.2,0000.0,0009.31,0003.23,0002.30
2022-01-25 06:08:00,,0823.7,5.02,0.00,22.5,21.8,00.0,31.4,24.3,11.2,0000.0,0008.91,0003.26,0002.30
2022-01-25 06:09:00,,0823.7,5.00,0.00,22.5,21.8,00.0,31.4,24.2,11.1,0000.0,0008.81,0003.25,0002.30
2022-01-25 06:10:00,,0823.7,5.00,0.00,22.5,21.8,00.0,31.4,24.2,11.2,0000.0,0009.19,0003.23,0002.29
2022-01-25 06:11:00,,0823.6,5.00,0.00,22.5,21.8,00.0,31.4,24.2,11.2,0000.0,0008.24,0003.22,0002.28
2022-01-25 06:12:00,,0823.7,5.00,0.00,22.4,21.8,00.0,31.4,24.2,11.1,0000.0,0008.21,0003.23,0002.27
2022-01-25 06:13:00,,0823.7,5.00,0.00,22.4,21.8,00.0,31.4,24.2,11.1,0000.0,0007.88,0003.23,0002.24
2022-01-25 06:14:00,,0823.7,5.00,0.00,22.4,21.8,00.0,31.4,24.2,11.1,0000.0,0007.74,0003.26,0002.23
2022-01-25 06:15:00,,0823.6,5.01,0.00,22.4,21.7,00.0,31.4,24.2,11.1,0000.0,0007.81,0003.29,0002.22
2022-01-25 06:16:00,,0823.7,5.00,0.00,22.4,21.7,00.0,31.4,24.2,11.1,0000.0,0008.41,0003.27,0002.19
2022-01-25 06:17:00,,0823.7,5.01,0.00,22.4,21.7,00.0,31.4,24.2,11.1,0000.0,0008.63,0003.23,0002.16
2022-01-25 06:18:00,,0823.6,5.00,0.00,22.4,21.7,00.0,31.4,24.2,11.1,0000.0,0008.55,0003.20,0002.14
2022-01-25 06:19:00,,0823.7,5.00,0.00,22.4,21.7,00.0,31.4,24.2,11.1,0000.0,0008.58,0003.18,0002.11
2022-01-25 06:20:00,,0823.7,4.98,0.00,22.4,21.7,00.0,31.4,24.2,11.1,0000.0,0008.30,0003.16,0002.09
2022-01-25 06:21:00,,0823.6,5.00,0.00,22.4,21.7,00.0,31.4,24.2,11.2,0000.0,0007.76,0003.13,0002.08
2022-01-25 06:22:00,,0823.6,5.01,0.00,22.4,21.6,00.0,31.4,24.2,11.2,0000.0,0007.83,0003.13,0002.08
2022-01-25 06:23:00,,0823.6,5.00,0.00,22.4,21.6,00.0,31.4,24.1,11.2,0000.0,0007.81,0003.09,0002.08
2022-01-25 06:24:00,,0823.6,5.00,0.00,22.4,21.6,00.0,31.3,24.1,11.2,0000.0,0007.74,0003.10,0002.08
2022-01-25 06:25:00,,0823.6,4.99,0.00,22.4,21.6,00.0,31.3,24.1,11.2,0000.0,0007.74,0003.11,0002.08
2022-01-25 06:26:00,,0823.7,5.00,0.00,22.3,21.6,00.0,31.3,24.1,11.1,0000.0,0007.72,0003.01,0002.07
2022-01-25 06:27:00,,0823.7,5.00,0.00,22.3,21.6,00.0,31.3,24.1,11.1,0000.0,0007.35,0002.98,0002.06
2022-01-25 06:28:00,,0823.7,5.02,0.00,22.3,21.7,00.0,31.3,24.1,11.2,0000.0,0007.83,0003.00,0002.07
2022-01-25 06:29:00,,0823.6,4.99,0.00,22.4,22.4,00.0,31.4,24.3,11.2,0000.0,0007.79,0002.92,0002.06
2022-01-25 06:30:00,,0823.6,5.00,0.00,22.6,23.1,00.0,31.4,24.5,11.1,0000.0,0007.85,0002.93,0002.07
2022-01-25 06:31:00,,0823.6,5.01,0.00,22.6,23.1,00.0,31.4,24.6,11.2,0000.0,0008.65,0003.05,0002.08
2022-01-25 06:32:00,,0823.7,5.01,0.00,22.7,22.9,00.0,31.4,24.6,11.0,0000.0,0008.74,0003.03,0002.07
2022-01-25 06:33:00,,0823.7,5.00,0.00,22.7,22.8,00.0,31.5,24.6,11.0,0000.0,0008.56,0002.99,0002.06
2022-01-25 06:34:00,,0823.7,5.00,0.00,22.7,22.6,00.0,31.5,24.6,11.0,0000.0,0008.56,0003.04,0002.06
2022-01-25 06:35:00,,0823.6,5.01,0.00,22.7,22.5,00.0,31.5,24.6,11.1,0000.0,0008.61,0003.06,0002.07
2022-01-25 06:36:00,,0823.6,4.99,0.00,22.7,22.4,00.0,31.5,24.6,11.2,0000.0,0008.71,0003.07,0002.07
2022-01-25 06:37:00,,0823.7,5.00,0.00,22.7,22.3,00.0,31.5,24.5,11.2,0000.0,0008.62,0003.09,0002.08
2022-01-25 06:38:00,,0823.7,5.00,0.00,22.7,22.2,00.0,31.5,24.5,11.1,0000.0,0008.47,0003.08,0002.09
2022-01-25 06:39:00,,0823.6,5.00,0.00,22.7,22.2,00.0,31.5,24.5,11.2,0000.0,0008.64,0003.12,0002.10
2022-01-25 06:40:00,,0823.7,5.01,0.00,22.7,22.1,00.0,31.5,24.5,11.1,0000.0,0008.78,0003.15,0002.11
2022-01-25 06:41:00,,0823.7,5.00,0.00,22.7,22.1,00.0,31.5,24.5,10.9,0000.0,0008.63,0003.15,0002.12
2022-01-25 06:42:00,,0823.7,5.00,0.00,22.6,22.1,00.0,31.5,24.4,10.8,0000.0,0008.00,0003.12,0002.12
2022-01-25 06:43:00,,0823.7,4.99,0.00,22.6,22.0,00.0,31.5,24.4,10.9,0000.0,0008.03,0003.18,0002.14
2022-01-25 06:44:00,,0823.6,4.99,0.00,22.6,22.0,00.0,31.5,24.4,10.9,0000.0,0008.11,0003.22,0002.15
2022-01-25 06:45:00,,0823.6,5.00,0.00,22.6,22.0,00.0,31.5,24.4,11.0,0000.0,0008.05,0003.19,0002.15
2022-01-25 06:46:00,,0823.6,5.00,0.00,22.6,21.9,00.0,31.5,24.4,11.1,0000.0,0008.45,0003.17,0002.16
2022-01-25 06:47:00,,0823.6,5.00,0.00,22.6,21.9,00.0,31.5,24.4,11.1,0000.0,0009.05,0003.16,0002.17
2022-01-25 06:48:00,,0823.6,5.00,0.00,22.6,21.9,00.0,31.5,24.3,11.0,0000.0,0009.40,0003.16,0002.18
2022-01-25 06:49:00,,0823.6,5.00,0.00,22.6,21.9,00.0,31.5,24.3,11.0,0000.0,0009.22,0003.20,0002.18
2022-01-25 06:50:00,,0823.6,5.00,0.00,22.6,21.8,00.0,31.5,24.3,11.0,0000.0,0008.22,0003.17,0002.18
2022-01-25 06:51:00,,0823.5,5.00,0.00,22.5,21.8,00.0,31.5,24.3,11.0,0000.0,0007.96,0003.12,0002.17
2022-01-25 06:52:00,,0823.5,5.01,0.00,22.5,21.8,00.0,31.5,24.3,11.0,0000.0,0008.33,0003.07,0002.16
2022-01-25 06:53:00,,0823.5,5.00,0.00,22.5,21.8,00.0,31.5,24.3,11.0,0000.0,0008.56,0003.02,0002.17
2022-01-25 06:54:00,,0823.4,5.00,0.00,22.5,21.8,00.0,31.5,24.3,11.1,0000.0,0008.38,0002.90,0002.17
2022-01-25 06:55:00,,0823.4,5.00,0.00,22.5,21.7,00.0,31.5,24.3,11.1,0000.0,0008.29,0002.82,0002.16
2022-01-25 06:56:00,,0823.4,4.99,0.00,22.5,21.7,00.0,31.4,24.3,11.0,0000.0,0008.26,0002.87,0002.16
2022-01-25 06:57:00,,0823.4,5.00,0.00,22.5,21.7,00.0,31.4,24.2,11.1,0000.0,0007.88,0002.88,0002.15
2022-01-25 06:58:00,,0823.4,5.00,0.00,22.4,21.7,00.0,31.4,24.2,11.1,0000.0,0006.94,0002.87,0002.14
2022-01-25 06:59:00,,0823.4,5.01,0.00,22.4,21.7,00.0,31.4,24.2,11.0,0000.0,0006.28,0002.84,0002.13
